Simultaneous Nadir Overpasses (SNOs) Predictions

Prediction of SNOs near US between AQUA and NPP Satellite Orbit:

Table of predicted SNOs near US for the next 10.0 days since TLE Epoch: 11/25/2017
Index Date (AQUA) Time (AQUA) AQUA Lat,Lon Date (NPP) Time (NPP) NPP Lat,Lon Distance(km) Time Diff (sec)
1 11/27/2017 06:30:15 46.38, -65.02 11/27/2017 06:30:56 46.80, -67.11 166.17 41
2 11/27/2017 08:08:09 49.89, -88.35 11/27/2017 08:11:23 50.43, -90.94 193.73 194
3 11/27/2017 09:47:02 49.89,-113.07 11/27/2017 09:52:51 50.53,-116.26 238.11 349
4 11/29/2017 19:06:18 49.94, -92.54 11/29/2017 19:01:39 49.60, -94.46 142.84 279
5 11/29/2017 20:45:12 50.00,-117.29 11/29/2017 20:43:08 49.55,-119.82 188.04 124
6 12/02/2017 08:35:01 20.03,-101.88 12/02/2017 08:26:41 19.06,-102.38 119.92 500
7 12/02/2017 10:11:40 28.10,-124.64 12/02/2017 10:05:34 28.25,-125.42 78.07 366




NCC Satellite Simultaneous Nadir Overpasses (SNOs) Prediction Service
